Location: Biltmore Gardens
(41.6070°N, 83.4666°W)
Time: 13:51:37
(UTC+00:00)

Cosmos 1271 Rocket - Pass Details

Date: 14 July 2020
Orbit: 497 x 546 km, 81.2° (Epoch: 04 August)

Event Time Altitude Azimuth Distance (km) Brightness Sun altitude
Rises 09:02:21 0° 349° (N) 2,619 6.8 -11.4°
Reaches altitude 10° 09:04:30 10° 349° (NNW) 1,723 5.8 -11.1°
Maximum altitude 09:08:16 82° 262° (W) 511 2.6 -10.5°
Drops below altitude 10° 09:11:59 10° 175° (S) 1,694 5.0 -10.0°
Sets 09:14:05 0° 174° (S) 2,571 5.9 -9.7°
